| time (UTC) | temp F | wind direction | speed MPH | gust MPH | rain 1hr in | rain 24hr in | rain mn in | humidity % | barometer mb |
| 20260904015408 | 67 | 237 | 6.0 | 7.0 | 0.00 | 0.03 | 0.03 | 91 | 1018.9 |
| 20260904014408 | 68 | 214 | 6.0 | 15.0 | 0.00 | 0.03 | 0.03 | 90 | 1018.9 |
| 20260904013908 | 68 | 229 | 6.0 | 12.0 | 0.00 | 0.03 | 0.03 | 90 | 1019.1 |
| 20260904013408 | 68 | 242 | 6.0 | 13.0 | 0.00 | 0.03 | 0.03 | 91 | 1019.1 |
| 20260904012909 | 68 | 237 | 6.0 | 12.0 | 0.00 | 0.03 | 0.03 | 91 | 1019.1 |
| 20260904012408 | 68 | 197 | 6.0 | 14.0 | 0.00 | 0.03 | 0.03 | 91 | 1019.2 |
| 20260904011407 | 68 | 203 | 7.0 | 10.0 | 0.00 | 0.03 | 0.03 | 91 | 1019.2 |
| 20260904010909 | 68 | 205 | 5.0 | 14.0 | 0.00 | 0.03 | 0.03 | 92 | 1019.4 |
| 20260904010408 | 68 | 205 | 5.0 | 14.0 | 0.00 | 0.03 | 0.03 | 92 | 1019.4 |
| 20260904005909 | 68 | 238 | 5.0 | 9.0 | 0.00 | 0.03 | 0.03 | 92 | 1019.4 |
| 20260904005408 | 67 | 207 | 5.0 | 9.0 | 0.00 | 0.03 | 0.03 | 92 | 1019.3 |
| 20260904004908 | 67 | 219 | 6.0 | 10.0 | 0.00 | 0.03 | 0.03 | 92 | 1019.3 |
| 20260904004408 | 67 | 231 | 6.0 | 12.0 | 0.02 | 0.03 | 0.03 | 92 | 1019.3 |
| 20260904002910 | 68 | 249 | 7.0 | 10.0 | 0.02 | 0.03 | 0.03 | 93 | 1019.5 |
| 20260904001408 | 68 | 218 | 5.0 | 13.0 | 0.03 | 0.03 | 0.03 | 93 | 1019.6 |
| 20260904000908 | 68 | 195 | 5.0 | 13.0 | 0.03 | 0.03 | 0.03 | 92 | 1019.8 |
| 20260903235909 | 68 | 222 | 3.0 | 8.0 | 0.03 | 0.03 | 0.03 | 92 | 1019.8 |
| 20260903235408 | 68 | 230 | 3.0 | 13.0 | 0.03 | 0.03 | 0.03 | 91 | 1020.0 |
| 20260903234908 | 68 | 232 | 3.0 | 10.0 | 0.03 | 0.03 | 0.03 | 91 | 1020.0 |
| 20260903234408 | 68 | 244 | 2.0 | 9.0 | 0.01 | 0.01 | 0.01 | 90 | 1020.0 |
| 20260903233408 | 69 | 323 | 2.0 | 5.0 | 0.01 | 0.01 | 0.01 | 90 | 1019.9 |
| 20260903232910 | 69 | 290 | 4.0 | 5.0 | 0.01 | 0.01 | 0.01 | 89 | 1019.9 |
| 20260903230908 | 69 | 233 | 6.0 | 12.0 | 0.00 | 0.00 | 0.00 | 87 | 1019.8 |
| 20260903230408 | 69 | 236 | 7.0 | 13.0 | 0.00 | 0.00 | 0.00 | 86 | 1019.8 |
| 20260903224908 | 70 | 232 | 6.0 | 10.0 | 0.00 | 0.00 | 0.00 | 85 | 1019.9 |
| 20260903223908 | 69 | 209 | 5.0 | 8.0 | 0.00 | 0.00 | 0.00 | 85 | 1020.0 |
| 20260903223408 | 69 | 205 | 5.0 | 14.0 | 0.00 | 0.00 | 0.00 | 85 | 1020.0 |
| 20260903222408 | 69 | 242 | 6.0 | 8.0 | 0.00 | 0.00 | 0.00 | 86 | 1020.3 |
| 20260903221908 | 69 | 220 | 6.0 | 12.0 | 0.00 | 0.00 | 0.00 | 86 | 1020.3 |
| 20260903220909 | 69 | 203 | 5.0 | 12.0 | 0.00 | 0.00 | 0.00 | 86 | 1020.3 |
| 20260903215925 | 69 | 213 | 5.0 | 10.0 | 0.00 | 0.00 | 0.00 | 86 | 1020.3 |
| 20260903214908 | 69 | 180 | 5.0 | 9.0 | 0.00 | 0.00 | 0.00 | 86 | 1020.5 |
| 20260903213908 | 69 | 189 | 5.0 | 7.0 | 0.00 | 0.00 | 0.00 | 86 | 1020.5 |
| 20260903212408 | 69 | 225 | 5.0 | 8.0 | 0.00 | 0.00 | 0.00 | 86 | 1020.6 |
| 20260903211908 | 69 | 239 | 5.0 | 8.0 | 0.00 | 0.00 | 0.00 | 86 | 1020.6 |
| 20260903211408 | 69 | 226 | 6.0 | 6.0 | 0.00 | 0.00 | 0.00 | 86 | 1020.6 |
| 20260903210908 | 69 | 254 | 6.0 | 13.0 | 0.00 | 0.00 | 0.00 | 86 | 1020.6 |
| 20260903210407 | 69 | 215 | 7.0 | 10.0 | 0.00 | 0.00 | 0.00 | 85 | 1020.6 |
| 20260903205910 | 69 | 239 | 7.0 | 12.0 | 0.00 | 0.00 | 0.00 | 86 | 1020.6 |
| 20260903204909 | 69 | 212 | 5.0 | 14.0 | 0.00 | 0.00 | 0.00 | 86 | 1020.7 |
| 20260903204409 | 69 | 227 | 5.0 | 13.0 | 0.00 | 0.00 | 0.00 | 87 | 1020.7 |
| 20260903203908 | 69 | 217 | 6.0 | 10.0 | 0.00 | 0.00 | 0.00 | 87 | 1020.7 |
| 20260903202410 | 69 | 230 | 5.0 | 9.0 | 0.00 | 0.00 | 0.00 | 87 | 1020.5 |
| 20260903194908 | 69 | 207 | 4.0 | 9.0 | 0.00 | 0.00 | 0.00 | 88 | 1020.7 |
| 20260903193909 | 69 | 194 | 5.0 | 9.0 | 0.00 | 0.00 | 0.00 | 87 | 1020.7 |
| 20260903193408 | 69 | 199 | 5.0 | 8.0 | 0.00 | 0.00 | 0.00 | 87 | 1020.7 |
| 20260903192410 | 69 | 222 | 6.0 | 10.0 | 0.00 | 0.00 | 0.00 | 87 | 1020.6 |
| 20260903191908 | 69 | 229 | 5.0 | 10.0 | 0.00 | 0.00 | 0.00 | 87 | 1020.6 |
| 20260903191408 | 69 | 215 | 5.0 | 8.0 | 0.00 | 0.00 | 0.00 | 86 | 1020.6 |
| 20260903190408 | 69 | 190 | 5.0 | 8.0 | 0.00 | 0.00 | 0.00 | 86 | 1020.8 |
| 20260903185908 | 69 | 233 | 5.0 | 7.0 | 0.00 | 0.00 | 0.00 | 86 | 1020.8 |
| 20260903181911 | 69 | 213 | 6.0 | 13.0 | 0.00 | 0.00 | 0.00 | 84 | 1020.7 |
| 20260903180908 | 69 | 232 | 6.0 | 12.0 | 0.00 | 0.00 | 0.00 | 84 | 1020.8 |
| 20260903173409 | 70 | 220 | 5.0 | 10.0 | 0.00 | 0.00 | 0.00 | 81 | 1020.9 |
| 20260903172910 | 70 | 241 | 7.0 | 10.0 | 0.00 | 0.00 | 0.00 | 81 | 1020.9 |
| 20260903170909 | 71 | 224 | 6.0 | 13.0 | 0.00 | 0.00 | 0.00 | 79 | 1020.5 |
| 20260903164908 | 71 | 229 | 6.0 | 18.0 | 0.00 | 0.00 | 0.00 | 79 | 1020.6 |
| 20260903162909 | 70 | 228 | 4.0 | 15.0 | 0.00 | 0.00 | 0.00 | 80 | 1020.7 |
| 20260903161908 | 70 | 271 | 4.0 | 7.0 | 0.00 | 0.00 | 0.00 | 80 | 1020.6 |
| 20260903160408 | 70 | 213 | 5.0 | 8.0 | 0.00 | 0.00 | 0.00 | 80 | 1020.7 |
| 20260903155408 | 70 | 205 | 6.0 | 9.0 | 0.00 | 0.00 | 0.00 | 80 | 1020.7 |
| 20260903153909 | 70 | 240 | 6.0 | 14.0 | 0.00 | 0.00 | 0.00 | 79 | 1020.8 |
| 20260903151908 | 70 | 214 | 7.0 | 15.0 | 0.00 | 0.00 | 0.00 | 80 | 1020.9 |
| 20260903150407 | 70 | 247 | 6.0 | 15.0 | 0.00 | 0.00 | 0.00 | 81 | 1021.0 |
| 20260903145408 | 69 | 224 | 7.0 | 10.0 | 0.00 | 0.00 | 0.00 | 81 | 1021.2 |
| 20260903140907 | 69 | 268 | 6.0 | 12.0 | 0.00 | 0.00 | 0.00 | 81 | 1021.0 |
| 20260903140407 | 69 | 237 | 7.0 | 13.0 | 0.00 | 0.00 | 0.00 | 81 | 1021.0 |
| 20260903135909 | 70 | 236 | 7.0 | 23.0 | 0.00 | 0.00 | 0.00 | 80 | 1021.0 |
| 20260903132909 | 70 | 242 | 7.0 | 10.0 | 0.00 | 0.00 | 0.00 | 79 | 1021.0 |
| 20260903131408 | 70 | 228 | 6.0 | 13.0 | 0.00 | 0.00 | 0.00 | 81 | 1020.9 |
| 20260903130408 | 69 | 267 | 7.0 | 12.0 | 0.00 | 0.00 | 0.00 | 80 | 1020.9 |
| 20260903125909 | 69 | 206 | 6.0 | 13.0 | 0.00 | 0.00 | 0.00 | 79 | 1020.9 |
| 20260903125408 | 69 | 225 | 6.0 | 13.0 | 0.00 | 0.00 | 0.00 | 79 | 1020.8 |
| 20260903124907 | 69 | 207 | 7.0 | 13.0 | 0.00 | 0.00 | 0.00 | 79 | 1020.8 |
| 20260903123908 | 69 | 264 | 7.0 | 15.0 | 0.00 | 0.00 | 0.00 | 80 | 1020.9 |
| 20260903123407 | 69 | 211 | 7.0 | 17.0 | 0.00 | 0.00 | 0.00 | 79 | 1020.9 |
| 20260903122910 | 69 | 243 | 6.0 | 12.0 | 0.00 | 0.00 | 0.00 | 80 | 1020.9 |
| 20260903121908 | 69 | 232 | 7.0 | 12.0 | 0.00 | 0.00 | 0.00 | 80 | 1021.0 |
| 20260903121408 | 69 | 260 | 7.0 | 10.0 | 0.00 | 0.00 | 0.00 | 80 | 1021.0 |
| 20260903115909 | 68 | 202 | 7.0 | 15.0 | 0.00 | 0.00 | 0.00 | 79 | 1020.9 |
| 20260903115409 | 69 | 214 | 7.0 | 14.0 | 0.00 | 0.00 | 0.00 | 78 | 1020.9 |
| 20260903113407 | 70 | 239 | 7.0 | 15.0 | 0.00 | 0.00 | 0.00 | 74 | 1020.8 |
| 20260903112909 | 70 | 245 | 6.0 | 13.0 | 0.00 | 0.00 | 0.00 | 75 | 1020.8 |
| 20260903111908 | 69 | 239 | 7.0 | 12.0 | 0.00 | 0.00 | 0.00 | 75 | 1020.9 |
| 20260903110908 | 70 | 233 | 6.0 | 16.0 | 0.00 | 0.00 | 0.00 | 73 | 1020.7 |
| 20260903105908 | 70 | 259 | 7.0 | 13.0 | 0.00 | 0.00 | 0.00 | 74 | 1020.7 |
| 20260903104908 | 69 | 236 | 9.0 | 14.0 | 0.00 | 0.00 | 0.00 | 74 | 1020.5 |
| 20260903103908 | 69 | 241 | 7.0 | 16.0 | 0.00 | 0.00 | 0.00 | 73 | 1020.4 |
| 20260903103407 | 69 | 226 | 7.0 | 15.0 | 0.00 | 0.00 | 0.00 | 73 | 1020.4 |
| 20260903102911 | 69 | 231 | 6.0 | 18.0 | 0.00 | 0.00 | 0.00 | 73 | 1020.4 |
| 20260903101908 | 69 | 211 | 6.0 | 8.0 | 0.00 | 0.00 | 0.00 | 75 | 1020.3 |
| 20260903101413 | 68 | 217 | 7.0 | 13.0 | 0.00 | 0.00 | 0.00 | 75 | 1020.3 |
| 20260903093407 | 67 | 226 | 8.0 | 15.0 | 0.00 | 0.00 | 0.00 | 77 | 1020.5 |
| 20260903091907 | 67 | 204 | 7.0 | 13.0 | 0.00 | 0.00 | 0.00 | 77 | 1020.8 |
| 20260903091408 | 67 | 217 | 7.0 | 17.0 | 0.00 | 0.00 | 0.00 | 76 | 1020.8 |
| 20260903090407 | 67 | 195 | 8.0 | 13.0 | 0.00 | 0.00 | 0.00 | 76 | 1020.8 |
| 20260903085909 | 67 | 237 | 8.0 | 16.0 | 0.00 | 0.00 | 0.00 | 75 | 1020.8 |
| 20260903084408 | 67 | 227 | 9.0 | 17.0 | 0.00 | 0.00 | 0.00 | 75 | 1020.7 |
| 20260903083907 | 67 | 193 | 9.0 | 17.0 | 0.00 | 0.00 | 0.00 | 76 | 1020.5 |
| 20260903083407 | 67 | 217 | 9.0 | 21.0 | 0.00 | 0.00 | 0.00 | 75 | 1020.5 |
| 20260903082909 | 67 | 224 | 9.0 | 18.0 | 0.00 | 0.00 | 0.00 | 76 | 1020.5 |
| 20260903082407 | 67 | 215 | 9.0 | 16.0 | 0.00 | 0.00 | 0.00 | 76 | 1020.5 |
| 20260903081407 | 67 | 208 | 7.0 | 15.0 | 0.00 | 0.00 | 0.00 | 76 | 1020.5 |
| 20260903080908 | 67 | 193 | 7.0 | 14.0 | 0.00 | 0.00 | 0.00 | 75 | 1020.6 |
| 20260903075408 | 66 | 221 | 6.0 | 12.0 | 0.00 | 0.00 | 0.00 | 74 | 1020.5 |
| 20260903073908 | 66 | 229 | 9.0 | 12.0 | 0.00 | 0.00 | 0.00 | 73 | 1020.4 |
| 20260903073408 | 66 | 200 | 9.0 | 16.0 | 0.00 | 0.00 | 0.00 | 73 | 1020.4 |
| 20260903072407 | 66 | 230 | 8.0 | 13.0 | 0.00 | 0.00 | 0.00 | 72 | 1020.4 |
| 20260903071908 | 66 | 234 | 7.0 | 15.0 | 0.00 | 0.00 | 0.00 | 72 | 1020.4 |
| 20260903071407 | 66 | 232 | 7.0 | 18.0 | 0.00 | 0.00 | 0.00 | 71 | 1020.4 |
| 20260903064407 | 66 | 201 | 7.0 | 12.0 | 0.00 | 0.00 | 0.00 | 69 | 1020.5 |
| 20260903063908 | 66 | 226 | 6.0 | 14.0 | 0.00 | 0.00 | 0.00 | 68 | 1020.2 |
| 20260903063407 | 66 | 216 | 6.0 | 14.0 | 0.00 | 0.00 | 0.00 | 68 | 1020.2 |
| 20260903055909 | 65 | 234 | 6.0 | 14.0 | 0.00 | 0.00 | 0.00 | 65 | 1020.4 |
| 20260903055416 | 65 | 212 | 7.0 | 10.0 | 0.00 | 0.00 | 0.00 | 65 | 1020.5 |
| 20260903054907 | 65 | 206 | 7.0 | 10.0 | 0.00 | 0.00 | 0.00 | 64 | 1020.5 |
| 20260903053907 | 65 | 220 | 7.0 | 12.0 | 0.00 | 0.00 | 0.00 | 63 | 1020.2 |
| 20260903045908 | 66 | 264 | 6.0 | 10.0 | 0.00 | 0.00 | 0.00 | 62 | 1020.3 |
| 20260903045407 | 66 | 247 | 6.0 | 9.0 | 0.00 | 0.00 | 0.00 | 62 | 1020.0 |
| 20260903044907 | 66 | 226 | 6.0 | 8.0 | 0.00 | 0.00 | 0.00 | 62 | 1020.0 |
| 20260903044407 | 66 | 205 | 6.0 | 12.0 | 0.00 | 0.00 | 0.00 | 62 | 1020.0 |
| 20260903042908 | 65 | 175 | 5.0 | 6.0 | 0.00 | 0.00 | 0.00 | 65 | 1020.0 |
| 20260903042407 | 64 | 179 | 5.0 | 8.0 | 0.00 | 0.00 | 0.00 | 65 | 1019.9 |
| 20260903041908 | 64 | 167 | 3.0 | 7.0 | 0.00 | 0.00 | 0.00 | 66 | 1019.9 |
| 20260903041408 | 64 | 170 | 3.0 | 9.0 | 0.00 | 0.00 | 0.00 | 67 | 1019.9 |
| 20260903040908 | 64 | 177 | 3.0 | 7.0 | 0.00 | 0.00 | 0.00 | 68 | 1020.1 |
| 20260903033907 | 63 | 167 | 1.0 | 3.0 | 0.00 | 0.00 | 0.00 | 69 | 1020.5 |
| 20260903033407 | 62 | 160 | 0.0 | 3.0 | 0.00 | 0.00 | 0.00 | 71 | 1020.5 |
| 20260903030407 | 64 | 157 | 5.0 | 3.0 | 0.00 | 0.00 | 0.00 | 67 | 1020.5 |
| 20260903025907 | 64 | 157 | 3.0 | 8.0 | 0.00 | 0.00 | 0.00 | 67 | 1020.5 |
| 20260903023908 | 64 | 188 | 3.0 | 8.0 | 0.00 | 0.00 | 0.00 | 67 | 1020.5 |
| 20260903023408 | 64 | 200 | 3.0 | 6.0 | 0.00 | 0.00 | 0.00 | 67 | 1020.5 |
| 20260903020406 | 64 | 212 | 5.0 | 5.0 | 0.00 | 0.00 | 0.00 | 70 | 1020.9 |
| 20260903015908 | 64 | 216 | 5.0 | 8.0 | 0.00 | 0.00 | 0.00 | 70 | 1020.9 |